Location: Plymouth
(43.7570°N, 71.6890°W)
Time: 13:37:33
(UTC-04:00)

Daily predictions for brighter satellites

Satellite Brightness Start Highest point End
(mag) Time Altitude Azimuth Time Altitude Azimuth Time Altitude Azimuth
ERS-1 Rocket 3.0 20:39:31 10° SSE 20:44:31 76° ENE 20:49:33 10° N
Cosmos 2278 Rocket 2.7 20:38:55 10° NNW 20:44:33 64° WSW 20:50:08 10° S
Cosmos 2233 Rocket 4.2 20:39:34 10° N 20:45:52 78° W 20:52:02 10° S
Milstar 3 Cent rocket 4.1 20:40:39 10° WSW 20:45:54 19° SSW 20:49:44 10° SSE
USA 234 3.6 20:41:46 10° ESE 20:48:14 64° NNE 20:54:44 10° NW
Cosmos 1939 Rocket 3.3 20:44:54 10° SSE 20:48:54 48° ENE 20:52:56 10° N
SL-24 R/B - RUBIN 2 4.2 20:45:49 10° SSW 20:51:07 63° ESE 20:57:10 10° NE
Cosmos 1464 Rocket 4.1 20:46:49 10° N 20:52:52 57° ENE 20:58:54 10° SSE
Cosmos 1726 Rocket 3.6 20:49:09 10° N 20:53:38 81° E 20:58:03 10° S
Cosmos 2369 Rocket 4.2 20:55:28 10° N 20:59:01 17° NE 21:02:33 10° E
Cosmos 2219 Rocket 3.7 20:55:21 10° SW 21:00:41 42° WNW 21:06:03 10° NNE
PSLV R/B 3.9 20:58:03 10° SE 21:00:55 37° ENE 21:03:49 10° N
Cosmos 2058 Rocket 3.0 20:57:31 10° N 21:01:56 76° E 21:06:17 10° SSE
Lacrosse 5 rocket 1.1 21:00:02 10° SW 21:03:53 80° SE 21:07:59 10° NE
SL-16 R/B 2.2 20:59:07 10° SSW 21:04:42 68° ESE 21:10:20 10° NNE
deb Chang Zheng 4 3.7 21:05:05 10° NNE 21:09:32 84° WNW 21:13:54 10° SSW
Cosmos 2034 Rocket 4.2 21:03:44 10° N 21:10:03 59° ENE 21:16:18 10° SSE
Cosmos 1666 2.9 21:06:32 10° N 21:10:23 57° E 21:14:14 10° SSE
ARGOS 4.3 21:06:42 10° SE 21:11:18 30° ENE 21:15:58 10° N
Abrixas rocket 2.3 21:09:27 10° WNW 21:12:53 87° NNE 21:15:54 13° ESE
Cosmos 1602 Rocket 4.2 21:08:44 10° SSE 21:12:54 39° E 21:17:04 10° NNE
H-2A R/B 3.9 21:10:46 10° E 21:13:32 15° ENE 21:16:20 10° NNE
Meteor 1-23 Rocket 4.2 21:07:55 10° S 21:13:33 81° E 21:19:17 10° NNE
Okean 2 3.4 21:09:57 10° S 21:14:07 79° E 21:18:20 10° N
Aureole 2 Rocket 3.0 21:11:18 10° S 21:15:07 43° ESE 21:18:38 10° NE
Cosmos 1743 3.9 21:15:45 10° NNW 21:19:24 42° W 21:23:01 10° SSW
Cosmos 494 Rocket 3.9 21:15:00 10° SSW 21:20:06 81° ESE 21:25:15 10° NNE
SPOT 1/Viking Rocket 4.1 21:17:06 12° SE 21:21:30 43° ENE 21:26:21 10° N
Cosmos 1812 Rocket 4.3 21:17:43 10° N 21:21:49 38° ENE 21:25:03 15° SE
Cosmos 1461 3.3 21:19:44 10° NNW 21:24:01 52° NE 21:27:10 16° SE
Cosmos 1603 4.0 21:28:07 10° S 21:33:25 45° ESE 21:38:45 10° NE
MetOp-B 4.1 21:28:40 12° SSE 21:33:35 76° ENE 21:38:57 10° N
H-2A R/B 3.5 21:32:58 10° SSW 21:36:50 35° W 21:40:49 10° NNW
Meteor 2-4 Rocket 4.3 21:32:53 10° SSW 21:38:40 64° WNW 21:44:35 10° N
SPOT 5 2.9 21:38:18 11° S 21:42:35 65° WSW 21:46:55 10° NNW
Cosmos 2333 Rocket 4.4 21:38:59 10° WSW 21:43:49 28° NW 21:48:40 10° N
Cosmos 1626 Rocket 3.5 21:42:24 10° S 21:46:51 90° ENE 21:51:18 10° N
Cosmos 1302 Rocket 4.3 21:42:02 10° NNW 21:47:14 65° WSW 21:51:34 15° S
APEX 4.1 21:49:46 10° NW 21:53:35 52° WSW 21:57:11 17° S
Meteor 2-12 Rocket 4.4 21:48:08 10° N 21:54:15 71° E 21:58:39 19° SSE
SeaSat 1 3.5 21:53:09 12° S 21:57:20 40° WSW 22:01:59 10° NW
Lacrosse 5 4.2 21:53:49 10° WNW 21:58:01 25° NNW 22:02:12 10° NE
CZ-4B R/B 3.5 21:53:33 10° NNE 21:58:36 89° ESE 22:03:46 10° SSW
Landsat 7 4.3 21:56:50 23° SE 21:59:25 46° ENE 22:03:58 10° N
ATLAS CENTAUR R/B 4.0 21:55:23 10° WSW 21:59:47 30° NW 22:04:15 10° NNE
Cosmos 1943 4.0 21:57:45 22° SE 22:00:14 32° ESE 22:05:12 10° NE
Cosmos 1953 Rocket 4.5 22:01:19 26° SE 22:02:44 32° E 22:06:39 10° NNE
Cosmos 2228 4.5 21:59:35 10° NNW 22:03:35 35° W 22:07:35 10° SSW
DELTA 2 DEB (DPAF) 4.3 22:02:45 27° SE 22:05:07 62° ENE 22:09:34 10° N
Tsikada Rocket 4.4 22:08:36 10° SSW 22:14:58 66° W 22:21:21 10° N
YAOGAN 6 3.4 22:13:00 22° SSW 22:15:07 47° W 22:18:46 10° NNW
Terra 2.3 22:13:07 28° SE 22:15:13 46° ENE 22:19:46 10° N
Cosmos 1943 Rocket 3.8 22:11:44 10° N 22:16:09 24° NE 22:19:29 14° E
Atlas Centaur 2 3.9 22:11:49 10° SW 22:18:27 28° SSE 22:20:37 25° SE
CZ-4C R/B 3.4 22:17:57 32° SSE 22:19:55 89° ENE 22:24:05 10° NNW
COSMOS 2455 2.8 22:14:31 10° SSW 22:20:28 69° ESE 22:26:28 10° NE
ATLAS 3B R/B 3.3 22:18:10 20° S 22:22:56 41° ESE 22:29:53 10° NE
USA 81 4.0 22:19:50 10° N 22:25:09 88° W 22:28:04 28° S
SL-08 RB Rocket 3.8 22:23:10 29° S 22:25:29 73° WSW 22:30:03 10° NNW
Cosmos 407 Rocket 4.1 22:25:05 32° SE 22:26:29 37° ESE 22:31:17 10° NE
IGS 5A 3.7 22:29:33 40° SE 22:30:43 56° ENE 22:34:49 10° N
Cosmos-2242 4.1 22:26:58 10° NNE 22:30:52 30° ENE 22:31:50 27° E
USA 234 3.9 22:27:51 24° S 22:31:25 42° SW 22:37:36 10° WNW
Cosmos 1758 Rocket 3.6 22:36:07 43° SSE 22:37:17 60° E 22:41:37 10° NNE
Cosmos 1953 3.5 22:37:23 10° NNE 22:40:53 29° ENE 22:41:17 28° E
CARTOSAT-1 3.5 22:40:38 45° SSE 22:41:57 89° ENE 22:46:19 10° NNW
SL-24 R/B 4.4 22:38:14 10° N 22:43:06 71° E 22:44:56 39° SSE
Lacrosse 5 rocket 3.9 22:40:25 10° WNW 22:43:37 23° NNW 22:46:58 10° NNE
Cosmos 2369 Rocket 2.1 22:38:14 10° NNW 22:43:57 86° ENE 22:46:13 38° SSE
SAR-Lupe-2 3.7 22:47:10 54° SSW 22:47:43 64° WSW 22:51:18 10° NNW
Abrixas rocket 4.5 22:47:15 10° W 22:48:53 17° WSW 22:48:53 17° WSW
Lacrosse 4 Rocket 2.0 22:50:40 37° E 22:50:40 37° E 22:53:52 10° NE
ARGOS 4.2 22:48:12 21° SSW 22:51:23 40° W 22:56:29 10° NNW
Cosmos 1805 4.4 22:48:05 10° NNE 22:51:38 30° ENE 22:51:49 30° E
H-2A R/B 2.0 22:50:29 39° S 22:52:19 75° WSW 22:57:21 10° NNW
Meteor 1-22 Rocket 4.2 22:47:21 10° NNW 22:52:52 76° W 22:55:18 36° S
Cosmos 1825 Rocket 4.3 22:54:01 24° SW 22:56:23 49° WNW 23:00:43 10° N
Cosmos 1634 Rocket 4.5 22:52:46 10° NNW 22:58:46 54° W 23:02:13 25° SSW
Nadezhda 4 Rocket 4.5 22:57:40 35° SE 22:59:36 45° E 23:05:34 10° NNE
COSMOS 2406 4.3 23:02:11 26° ESE 23:02:12 26° ESE 23:06:52 10° NE
Cosmos 2263 4.1 22:57:16 10° NNW 23:02:55 88° ENE 23:04:44 45° SSE
DMSP B5D2-2 4.1 22:59:26 10° NNE 23:04:46 83° WNW 23:07:02 35° SSW
Cosmos 1842 Rocket 4.4 23:01:43 10° N 23:05:45 36° ENE 23:06:09 35° E
Cosmos 1346 Rocket 3.6 23:10:07 36° WSW 23:11:11 46° WNW 23:14:58 10° N
Cosmos 1190 Rocket 4.4 23:14:26 26° SW 23:17:21 63° WNW 23:22:40 10° NNE
Cosmos 1758 3.2 23:20:17 10° N 23:24:25 88° ENE 23:24:30 86° SE
Cosmos 2279 Rocket 4.4 23:19:39 10° NNW 23:25:46 58° W 23:28:18 35° SSW
Cosmos 1842 3.7 23:32:29 52° W 23:32:45 53° W 23:36:38 10° N
Cosmos 1707 4.5 23:33:48 23° ENE 23:33:48 23° ENE 23:36:11 10° NE
Cosmos 676 Rocket 4.1 23:31:29 43° SW 23:33:16 76° WNW 23:38:38 10° NNE
Meteor 2-5 Rocket 4.2 23:39:51 42° ESE 23:40:44 45° E 23:46:15 10° NNE
Cosmos 1943 4.3 23:39:28 13° SW 23:44:08 41° WNW 23:49:32 10° NNE
Cosmos 1023 Rocket 4.4 23:45:10 65° SSE 23:45:45 72° ESE 23:51:02 10° NNE
Cosmos 1932 4.3 23:45:41 52° S 23:47:10 71° ESE 23:53:22 10° NE
Cosmos 1140 Rocket 3.3 23:49:49 68° SSE 23:50:26 78° ESE 23:55:42 10° NNE
Terra 3.6 23:51:59 19° WSW 23:53:10 20° W 23:56:41 10° NW
